Starlink 32318

operational
NORAD ID: 61864 Int'l Des: 2024-202 Owner: SPXS Country: US Constellation: starlink
LEOCIRCULAR

About Starlink 32318

Description loading...

Live Position

Loading 3D Globe...

Upcoming Passes

Altitude History

Altitude vs Time

uPlot chart will show altitude changes over time

Two-Line Element Set

1 61864U 24202V 26036.12394733 .00000735 00000-0 36230-4 0 9997
2 61864 43.0019 62.2004 0000929 257.3364 102.7384 15.27573878 70351
Epoch: Feb 5, 2026 • Age: 7 hours

Current Status

Altitude 482.5 km
Velocity 7.63 km/s
Sub-Earth Point 19.18°N, 65.44°W
Launch Date Nov 7, 2024
Age 1.2 years
Type internet

Technical Details

Classification Payload
Mass 730.00 kg
Dry Mass 700.00 kg
Total Mass 730.00 kg
Length 0.30 m
Diameter 4.10 m
Span 29.00 m
Shape Box + pan
Manufacturer SPXS
Bus Type Starlink V2M
Phase Status In Orbit
Owner/State SPXS/US

Large Constellations

Loading constellations...